Torna al catalogo

COSMOS 839 DEB

AttivoUNKNOWN
NORAD 10464·DEBRIS·🇷🇺 Russia

Lanciato Jul 8, 1976 da Plesetsk Cosmodrome

Loading…

Prossimi Passaggi (prossime 24 ore)

TLE

AggiornatoSource: Space-Track

Epoca: Sep 13, 2026, 08:30 UTC

1 10464U 76067AH  26256.35452174  .00000230  00000-0  77812-3 0  9996
2 10464  65.8335  26.9471 0716865 186.5323 204.5118 12.46940749278191

Traccia COSMOS 839 DEB in tempo reale con AllMySat

Download on the App Store